Regional Weather Roundup
Issued by NWS

Home | Current Version | Previous Version | Graphics & Text | Print | Product List | Glossary On
Versions: 1 2 3 4 5 6 7 8 9 10 11 12 13 14 15 16 17 18 19 20 21 22 23 24 25 26 27 28 29 30 31 32 33 34 35 36 37 38 39 40 41 42 43 44 45 46 47 48 49
000
ASUS43 KDMX 212307
RWRIA

WEATHER ROUNDUP FOR IOWA
NATIONAL WEATHER SERVICE DES MOINES IA
600 PM CDT THU AUG 21 2014

NOTE: "FAIR" INDICATES FEW OR NO CLOUDS BELOW 12,000 FEET WITH NO
SIGNIFICANT WEATHER AND/OR OBSTRUCTIONS TO VISIBILITY.

* - THESE STATIONS ARE NOT NWS STATIONS...THUS NOT UNDER NWS
QUALITY CONTROL.  THEY ALSO DO NOT REPORT WEATHER SUCH
AS PRECIPITATION OR FOG.

IAZ001>003-012>014-020>022-031>034-043>046-220000-
   NORTHWEST IOWA

CITY           SKY/WX    TMP DP  RH WIND       PRES   REMARKS
CARROLL *      SUNNY     84  75  74 SW9G15    29.85R HX  92
CHEROKEE *     SUNNY     88  77  70 SW5       29.83R HX 100
DENISON *      SUNNY     86  73  66 SW6G13    29.83S HX  93
LE MARS *      SUNNY     88  75  66 SW5       29.83R HX  97
ORANGE CITY *  SUNNY     88  73  62 W5        29.84R HX  96
SHELDON *      SUNNY     86  77  74 SW6       29.82S HX  97
SIOUX CITY     SUNNY     90  75  61 W6        29.82R HX 100
SPENCER        MOSUNNY   86  74  67 SW9       29.83S HX  94
STORM LAKE *   MOSUNNY   84  79  84 SW8G14    29.85S HX  96
$$

IAZ055>058-069>071-079>083-090>094-220000-
   SOUTHWEST IOWA

CITY           SKY/WX    TMP DP  RH WIND       PRES   REMARKS
ATLANTIC *     MOSUNNY   86  77  74 S9        29.86R HX  97
AUDUBON *      SUNNY     88  81  79 S8        29.88R HX 105
CLARINDA *     SUNNY     90  79  70 VRB3      29.85R HX 105
COUNCIL BLFS * SUNNY     90  75  62 S6        29.85R HX 100
CRESTON *      SUNNY     84  79  84 SE7       29.88R HX  96
HARLAN  *      SUNNY     86  75  70 SW8       29.89R HX  95
LAMONI         MOSUNNY   87  75  67 S8        29.87S HX  96
RED OAK *      SUNNY     88  79  74 VRB5      29.85R HX 102
SHENANDOAH *   SUNNY     91  79  66 E5        29.84R HX 107
$$

IAZ047>049-059>061-072>074-084-220000-
   CENTRAL IOWA

CITY           SKY/WX    TMP DP  RH WIND       PRES   REMARKS
AMES           PTSUNNY   85  75  72 S14       29.85S HX  93
ANKENY *       SUNNY     86  73  66 S15       29.85S HX  93
CHARITON *     CLOUDY    84  77  79 S7        29.89R HX  94
DES MOINES     MOSUNNY   87  74  64 S12       29.85S HX  95
GRINNELL*      MOSUNNY   82  73  74 S8        29.88S HX  88
KNOXVILLE *    PTSUNNY   84  77  79 S8        29.87S HX  94
MARSHALLTOWN   SUNNY     84  74  71 S9G18     29.86R HX  91
PELLA *        MOSUNNY   86  77  74 SE5       29.88F HX  97
PERRY *          N/A     84  75  74 S13       29.85S HX  92
$$

IAZ004>006-015-016-023>025-035-036-220000-
   NORTH CENTRAL IOWA

CITY           SKY/WX    TMP DP  RH WIND       PRES   REMARKS
ALGONA *       PTSUNNY   86  75  70 SW10      29.85R HX  95
CLARION *      PTSUNNY   86  73  66 SW12G18   29.86R HX  93
ESTHERVILLE    PTSUNNY   84  74  71 SW9       29.83R HX  91
FORT DODGE *   PTSUNNY   84  73  70 SW9       29.85S HX  91
MASON CITY     MOSUNNY   86  72  62 S10       29.87R HX  92
FOREST CITY *  MOSUNNY   86  72  62 SW12      29.85R HX  92
IOWA FALLS *   PTSUNNY   84  73  70 S9        29.88R HX  91
$$

IAZ007>011-017>019-026>030-037>042-050>054-066-220000-
   NORTHEAST IOWA

CITY           SKY/WX    TMP DP  RH WIND       PRES   REMARKS
CEDAR RAPIDS   PTSUNNY   80  75  84 S10       29.87S HX  85
CHARLES CITY * MOSUNNY   82  73  74 S8G14     29.88R HX  88
CLINTON *      CLOUDY    75  73  94 S20       29.91F
DECORAH *      MOSUNNY   81  73  78 S7        29.88R HX  85
DUBUQUE        CLOUDY    75  72  90 S12       29.88F
MONTICELLO *   MOSUNNY   77  73  88 S9G16     29.87S
OELWEIN *      MOSUNNY   79  72  78 S13       29.90R HX  82
WATERLOO       MOSUNNY   83  71  67 S17       29.86R HX  87
$$

IAZ064-065-067-068-078-220000-
   EAST CENTRAL IOWA

CITY           SKY/WX    TMP DP  RH WIND       PRES   REMARKS
DAVENPORT      RAIN      77  73  87 SE9       29.90F FOG
IOWA CITY      PTSUNNY   82  75  79 S10       29.89S HX  89
MT. PLEASANT * MOSUNNY   88  73  62 SE8       29.89F HX  96
MUSCATINE *    MOSUNNY   86  73  66 SE7       29.89F HX  93
QUAD CITIES    PTSUNNY   81  74  79 SE5       29.90S HX  86
$$

IAZ062-063-075>077-085>089-095>099-220000-
   SOUTHEAST IOWA

CITY           SKY/WX    TMP DP  RH WIND       PRES   REMARKS
BURLINGTON     MOSUNNY   88  76  67 S5        29.90S HX  99
FAIRFIELD *    PTSUNNY   84  75  74 SE7       29.89S HX  92
FORT MADISON * SUNNY     88  79  74 S3        29.91S HX 102
KEOKUK *       SUNNY     88  79  74 S5        29.89S HX 102
OSKALOOSA *    CLOUDY    82  77  83 SE6       29.88S HX  91
CENTERVILLE *  SUNNY     86  77  74 S7        29.90S HX  97
OTTUMWA        PTSUNNY   84  77  79 SE7       29.86F HX  94
WASHINGTON *   SUNNY     82  77  83 SE8       29.89S HX  91
$$

ABBREVIATIONS USED IN REMARKS
   TC - TEMPERATURES IN CELSIUS
  WCI - WIND CHILL INDEX
   HX - HEAT INDEX
  VSB - VISIBILITY
$$




USA.gov is the U.S. government's official web portal to all federal, state and local government web resources and services.